Temp
15 15 15 15 15 15 15 15 15 14 14 14 14 14 14 14 14 14 14 14 14 15 15 15 15 15 15 15 15 15 15 15 15 15 15 15 15 15 15 14 14 14
15 15 15 15 15 15 14 14 14 14 14 13 13 13 13 13 14 14 14 14 14 15 15 15 15 15 15 15 15 15 15 15 15 15 15 15 15 14 14 14 14 14
15 15 15 15 15 14 14 14 14 14 14 13 13 13 13 14 14 14 14 14 14 14 15 15 15 15 15 15 14 14 15 14 14 14 14 14 14 14 14 13 13 13
15 15 14 14 14 14 14 14 14 13 13 13 13 13 13 14 14 14 14 14 14 14 14 14 15 15 15 14 14 14 14 14 14 14 14 14 14 13 13 13 13 12
14 14 14 14 14 14 14 14 14 13 13 13 13 13 14 14 14 14 14 14 14 14 14 14 14 14 14 14 14 14 14 14 14 14 14 14 13 13 13 12 12 12
14 14 14 14 14 14 13 13 14 13 13 13 13 13 13 14 14 13 13 13 14 14 14 14 14 14 14 14 14 14 13 13 14 13 13 13 13 12 12 12 12 12
13 13 13 14 14 14 13 13 13 13 12 13 13 13 13 13 13 13 12 13 13 14 14 14 14 14 14 14 13 13 13 13 13 13 13 13 12 12 12 12 12 12
12 13 13 14 14 13 13 13 13 12 12 13 13 13 13 13 12 12 12 13 13 14 14 14 14 14 14 13 13 13 13 13 13 13 13 12 12 12 12 11 11 11
12 13 13 14 14 13 13 13 12 12 12 13 13 13 13 13 12 12 12 13 13 14 14 14 13 13 13 13 13 12 13 13 13 12 12 12 12 12 11 11 11 11
12 13 14 14 14 13 13 13 13 12 12 13 13 13 13 13 12 12 13 13 13 13 14 13 13 13 13 13 12 12 12 12 12 12 12 12 12 11 11 11 11 11
13 14 14 14 14 13 13 13 13 13 13 13 13 13 13 13 13 13 13 13 13 13 13 13 13 13 13 12 12 12 12 12 12 12 12 11 11 11 11 11 11 11
13 14 14 14 14 13 13 13 13 13 13 13 13 13 13 13 13 14 13 13 13 13 13 13 13 13 13 12 12 12 12 12 12 11 11 11 11 11 11 11 11 11
13 14 14 14 14 13 13 13 13 13 13 13 13 13 13 13 13 13 13 13 13 13 13 13 13 13 12 12 11 11 11 11 11 11 11 11 11 11 11 10 10 10
13 14 14 14 14 13 13 13 12 12 12 12 13 13 13 13 13 13 13 13 12 12 13 13 13 13 12 12 11 11 11 11 11 11 11 11 10 11 10 10 10 10
12 13 14 14 13 13 12 12 12 12 12 12 13 13 13 12 12 12 12 12 12 12 12 12 13 12 12 11 11 11 11 11 11 11 10 11 11 11 10 10 10 10
12 13 13 14 13 13 12 12 12 11 12 12 12 12 12 12 12 12 12 12 12 12 12 12 12 12 12 11 11 11 11 11 10 10 10 11 11 11 10 10 10 10
12 12 13 13 13 12 12 12 11 11 12 12 12 11 11 11 11 11 11 11 11 11 12 12 12 11 11 11 10 10 10 10 10 10 10 11 11 11 10 10 10 9
12 12 12 13 12 12 11 11 11 11 11 11 11 11 11 11 10 10 10 10 10 11 11 11 11 11 10 10 10 10 10 10 10 10 10 11 11 10 10 10 10 10
12 12 12 12 12 12 11 11 11 11 11 11 11 11 11 10 10 10 10 10 10 10 10 10 10 10 9 9 10 9 9 9 10 10 10 11 11 10 10 10 10 10
12 11 11 11 12 11 11 11 11 11 11 11 11 11 10 10 10 10 10 9 9 9 9 9 9 9 8 9 9 9 9 9 9 9 10 11 11 10 10 10 9 10
11 11 11 11 11 11 11 11 11 11 11 11 11 11 11 10 10 10 9 9 9 9 8 8 8 8 8 8 8 8 8 8 8 9 10 10 10 10 9 9 9 9
11 11 11 11 11 11 11 11 11 11 11 11 11 11 10 10 10 9 9 9 9 8 8 7 8 7 7 7 7 7 7 8 8 8 9 10 10 9 9 9 9 9
10 10 11 11 11 11 11 11 11 11 11 11 11 10 10 10 10 9 9 9 8 8 7 7 7 7 7 7 7 7 7 7 7 8 9 9 9 9 9 9 9 9
10 10 10 11 11 11 11 11 11 11 11 11 10 10 10 10 10 9 8 8 8 7 7 7 7 7 6 6 6 6 6 6 7 8 8 8 8 8 8 8 8 9
10 10 10 11 11 11 11 10 10 11 11 11 10 10 10 10 9 9 8 8 8 7 7 6 6 6 6 6 6 6 6 6 7 7 7 7 7 7 8 8 8 8
10 10 10 10 11 11 11 10 10 11 11 11 10 10 10 9 9 8 8 8 7 7 6 6 6 6 6 6 6 5 5 6 6 7 7 6 6 7 7 7 7 8
Height
1521 1522 1524 1526 1527 1528 1529 1530 1532 1534 1535 1537 1538 1539 1540 1541 1542 1543 1544 1545 1545 1546 1547 1548 1550 1551 1551 1553 1553 1554 1555 1556 1557 1558 1559 1559 1560 1561 1562 1562 1562 1562
1520 1521 1523 1524 1526 1527 1528 1530 1532 1533 1534 1536 1538 1539 1540 1541 1542 1542 1543 1544 1544 1546 1547 1548 1549 1550 1551 1552 1554 1554 1554 1556 1557 1558 1559 1559 1560 1561 1562 1562 1562 1562
1519 1520 1521 1523 1524 1526 1527 1529 1531 1532 1534 1535 1537 1538 1539 1540 1541 1541 1542 1543 1544 1545 1546 1547 1549 1549 1550 1552 1553 1554 1554 1555 1556 1557 1558 1559 1560 1561 1561 1561 1561 1561
1517 1518 1520 1522 1523 1525 1527 1528 1530 1531 1533 1534 1536 1537 1538 1539 1540 1540 1541 1542 1543 1544 1545 1547 1548 1549 1550 1552 1553 1553 1554 1555 1556 1557 1558 1559 1560 1561 1561 1561 1561 1561
1516 1517 1519 1520 1522 1524 1526 1528 1529 1530 1532 1533 1535 1536 1537 1538 1539 1539 1540 1541 1542 1543 1545 1547 1549 1549 1550 1551 1552 1553 1553 1555 1556 1557 1558 1559 1560 1560 1561 1561 1560 1560
1514 1516 1518 1519 1521 1523 1525 1527 1528 1529 1531 1533 1534 1535 1536 1537 1537 1538 1539 1540 1542 1543 1544 1547 1548 1549 1550 1550 1551 1552 1553 1554 1555 1557 1558 1558 1559 1560 1560 1560 1560 1560
1512 1514 1516 1518 1520 1522 1524 1526 1527 1529 1530 1532 1533 1534 1535 1536 1536 1537 1538 1540 1542 1543 1544 1546 1547 1548 1549 1550 1551 1551 1553 1554 1555 1556 1557 1558 1559 1559 1560 1560 1560 1560
1511 1512 1515 1517 1519 1521 1523 1524 1526 1528 1529 1531 1532 1533 1534 1535 1535 1536 1538 1540 1542 1543 1544 1546 1547 1547 1548 1549 1550 1551 1552 1554 1555 1556 1557 1557 1558 1559 1559 1560 1560 1560
1509 1511 1513 1516 1518 1520 1521 1523 1525 1527 1528 1530 1531 1532 1533 1534 1535 1536 1538 1540 1541 1543 1544 1545 1546 1547 1548 1549 1550 1551 1552 1553 1554 1555 1556 1557 1558 1558 1559 1560 1560 1560
1508 1509 1512 1514 1516 1518 1520 1522 1524 1526 1527 1529 1530 1531 1532 1533 1534 1536 1538 1539 1541 1542 1543 1544 1545 1546 1547 1549 1550 1551 1552 1553 1554 1555 1556 1557 1557 1558 1559 1559 1560 1560
1506 1508 1510 1513 1515 1517 1519 1521 1523 1525 1526 1528 1529 1531 1531 1533 1534 1535 1537 1539 1540 1542 1543 1543 1544 1546 1547 1548 1549 1550 1552 1553 1553 1554 1555 1556 1557 1558 1559 1559 1560 1560
1505 1507 1509 1512 1514 1516 1518 1520 1522 1524 1526 1527 1529 1530 1531 1532 1533 1535 1537 1538 1540 1541 1542 1543 1544 1545 1546 1547 1548 1550 1551 1552 1553 1554 1555 1556 1557 1558 1559 1559 1560 1560
1503 1506 1508 1510 1513 1515 1517 1520 1521 1523 1525 1526 1528 1529 1530 1531 1533 1534 1536 1537 1539 1540 1541 1542 1543 1544 1546 1547 1548 1550 1551 1552 1552 1553 1554 1555 1556 1557 1558 1559 1560 1561
1502 1505 1507 1509 1512 1514 1517 1519 1520 1522 1524 1526 1527 1528 1529 1531 1532 1534 1535 1536 1538 1539 1540 1541 1542 1543 1545 1546 1547 1549 1550 1551 1552 1552 1553 1554 1556 1557 1558 1560 1561 1562
1501 1504 1506 1508 1511 1513 1515 1518 1520 1522 1523 1525 1526 1527 1529 1530 1531 1533 1534 1535 1537 1538 1539 1540 1541 1542 1544 1545 1546 1547 1549 1550 1551 1552 1552 1554 1555 1557 1559 1560 1561 1562
1500 1502 1505 1507 1509 1512 1514 1516 1518 1520 1522 1524 1525 1526 1528 1529 1531 1532 1533 1534 1535 1537 1538 1539 1540 1541 1543 1544 1545 1546 1548 1549 1550 1551 1551 1553 1555 1557 1558 1560 1561 1562
1499 1501 1503 1506 1508 1510 1513 1515 1517 1519 1521 1523 1524 1526 1527 1529 1530 1531 1532 1534 1534 1536 1537 1537 1539 1540 1541 1543 1544 1545 1546 1547 1548 1549 1550 1552 1554 1556 1557 1559 1560 1561
1497 1500 1502 1504 1507 1509 1512 1514 1516 1518 1520 1522 1523 1525 1526 1528 1529 1531 1532 1533 1534 1534 1535 1536 1538 1539 1540 1541 1543 1544 1545 1546 1547 1548 1549 1551 1553 1555 1556 1558 1559 1560
1496 1498 1501 1503 1505 1508 1511 1513 1515 1517 1519 1521 1523 1524 1525 1527 1529 1530 1531 1532 1532 1533 1534 1535 1537 1538 1539 1540 1542 1543 1544 1546 1547 1547 1548 1551 1553 1554 1556 1557 1558 1558
1495 1497 1500 1502 1505 1507 1510 1512 1514 1516 1518 1520 1522 1523 1524 1526 1528 1529 1530 1531 1531 1532 1533 1535 1536 1537 1538 1539 1541 1542 1544 1545 1546 1547 1548 1551 1553 1554 1554 1555 1556 1557
1493 1496 1499 1502 1504 1506 1509 1511 1513 1515 1517 1519 1520 1522 1524 1526 1527 1528 1529 1530 1530 1531 1532 1534 1535 1536 1538 1539 1541 1542 1543 1544 1545 1546 1548 1550 1552 1552 1553 1554 1556 1557
1492 1496 1498 1501 1503 1505 1507 1509 1512 1514 1516 1518 1519 1521 1523 1525 1526 1527 1528 1528 1529 1530 1531 1533 1535 1536 1537 1539 1540 1541 1542 1543 1544 1546 1547 1549 1550 1551 1552 1554 1555 1556
1492 1494 1497 1499 1501 1504 1506 1508 1510 1513 1515 1516 1518 1520 1521 1523 1524 1526 1526 1527 1527 1528 1530 1532 1533 1535 1536 1538 1540 1541 1542 1543 1544 1545 1546 1548 1549 1550 1551 1552 1554 1555
1491 1493 1495 1497 1500 1502 1504 1507 1509 1511 1512 1514 1516 1518 1519 1521 1522 1524 1525 1525 1526 1527 1529 1531 1533 1534 1536 1538 1539 1541 1542 1543 1544 1545 1546 1547 1548 1549 1550 1551 1552 1554
1489 1491 1494 1496 1498 1500 1502 1504 1506 1508 1510 1512 1514 1516 1517 1519 1521 1522 1523 1524 1525 1526 1528 1531 1533 1534 1536 1537 1538 1539 1541 1542 1543 1544 1545 1546 1546 1547 1549 1550 1551 1552
1487 1489 1491 1493 1495 1497 1500 1502 1503 1505 1508 1510 1512 1514 1515 1517 1519 1521 1522 1523 1524 1526 1527 1529 1531 1532 1534 1534 1534 1536 1539 1541 1542 1543 1543 1545 1546 1546 1548 1549 1550 1551
Wind_Speed
26 25 24 23 22 21 22 22 21 19 19 20 21 21 21 20 18 17 15 14 13 15 17 16 15 13 11 12 13 14 15 15 15 14 14 14 14 14 13 12 12 10
27 25 24 23 22 22 21 21 19 17 18 19 20 20 20 19 17 16 14 13 14 16 16 15 13 11 11 13 14 15 16 15 15 15 15 14 14 13 13 12 11 10
28 26 25 24 23 22 22 20 17 17 19 20 20 20 19 18 17 16 15 14 16 17 16 14 12 12 13 14 16 16 17 16 16 16 15 15 14 13 13 12 12 11
28 27 26 25 24 23 22 20 17 18 20 21 21 19 18 18 17 17 16 16 18 16 13 11 11 14 16 17 18 18 18 18 17 17 16 15 14 13 13 12 12 12
28 28 28 27 25 23 22 20 18 19 22 22 20 19 18 18 18 18 18 17 17 14 11 11 13 16 17 18 19 19 19 18 18 17 16 15 15 14 14 14 14 13
28 29 29 28 25 23 21 19 19 20 22 21 19 18 19 19 18 18 18 16 16 15 13 14 16 17 18 19 19 19 19 19 18 17 16 16 16 16 15 15 15 15
29 28 28 26 24 22 21 19 19 22 22 20 18 18 19 19 18 17 16 16 16 16 15 15 17 18 19 20 20 20 19 19 18 17 17 16 16 16 16 15 14 15
30 28 26 25 23 22 21 20 22 24 23 20 18 19 19 18 16 15 15 16 16 16 16 16 17 18 19 20 20 20 20 19 19 18 18 17 17 16 16 15 14 14
31 29 26 25 24 22 21 22 24 25 22 20 19 19 18 16 14 14 15 15 16 17 17 16 17 18 19 20 20 20 20 20 20 19 18 17 17 17 16 16 15 14
31 29 27 25 24 23 22 23 25 25 22 20 20 19 19 17 14 14 15 16 18 18 17 17 18 19 20 20 21 21 21 20 20 19 18 17 17 16 16 16 16 15
30 28 26 26 25 23 23 25 26 25 23 21 21 21 20 18 15 15 16 17 17 17 16 17 18 19 20 21 21 21 21 20 20 19 19 18 17 16 16 17 17 16
29 27 26 26 25 24 24 26 26 25 23 21 20 20 18 16 15 15 16 16 17 16 16 17 18 19 21 22 22 21 21 21 20 20 19 18 18 17 17 18 17 16
29 27 27 26 25 24 25 27 27 25 22 19 18 17 15 14 14 15 16 17 16 16 16 17 18 19 20 21 22 22 22 22 21 21 20 20 19 19 18 18 17 14
28 27 26 25 25 25 26 28 27 24 21 18 16 15 13 12 14 16 17 18 16 16 16 17 18 19 20 21 22 22 22 22 22 22 21 21 20 19 18 17 15 13
27 26 25 24 24 27 28 28 26 23 21 18 15 13 11 12 14 16 17 17 16 16 17 18 19 19 20 22 23 23 23 23 23 23 22 21 20 19 18 17 15 13
27 26 26 24 25 29 30 29 26 23 21 18 15 12 11 12 14 16 17 17 17 17 18 18 19 19 20 22 23 24 24 24 24 23 22 22 20 19 18 17 15 14
28 27 26 25 27 31 31 29 26 24 21 18 15 13 11 11 13 15 17 17 18 18 18 19 19 20 21 23 24 24 25 25 25 24 23 22 20 18 18 18 17 16
29 28 26 26 30 33 32 29 26 24 21 18 16 14 11 10 11 14 17 18 18 19 19 19 20 21 22 23 24 25 25 25 25 25 24 22 20 19 19 19 18 17
29 28 26 27 32 34 32 29 27 25 22 19 17 14 12 10 10 12 16 19 20 20 21 20 21 22 23 24 25 25 26 25 25 24 24 22 20 19 19 20 20 18
29 28 26 28 34 35 33 30 28 26 22 20 17 15 13 11 10 12 16 19 21 22 22 22 22 23 24 24 25 25 25 25 25 24 24 21 19 20 21 22 21 20
29 28 27 29 35 36 34 32 29 26 24 21 18 16 14 13 12 13 15 19 22 23 23 22 23 24 24 24 25 25 25 24 24 24 23 21 21 22 23 22 21 20
28 28 27 31 36 37 35 33 30 27 25 22 19 17 16 14 14 14 16 19 22 24 24 23 23 24 24 24 24 24 24 24 24 24 23 23 23 22 22 22 21 20
28 28 28 32 37 37 35 33 31 28 27 24 21 19 18 17 15 16 18 21 23 26 26 24 24 24 24 24 24 24 24 24 24 24 24 24 23 22 22 22 22 22
27 27 29 34 38 37 36 34 32 30 29 26 24 22 20 18 17 18 19 22 24 26 26 24 23 23 23 23 23 23 24 25 25 25 25 24 23 23 23 23 24 23
26 27 30 35 37 38 37 36 33 31 30 28 26 23 21 19 18 18 20 22 24 26 25 24 22 21 21 23 24 25 26 26 26 25 25 25 24 24 23 24 24 24
27 28 31 34 37 37 36 35 33 32 31 30 28 25 21 20 19 18 18 21 24 25 25 24 23 21 20 23 25 26 27 28 28 27 27 26 26 25 24 24 25 24
Wind_Direction
208 212 214 214 215 217 214 209 208 208 206 205 205 207 210 214 217 217 218 221 218 209 205 204 202 203 208 211 207 199 193 190 189 187 187 189 190 190 188 184 180 177
207 211 214 215 212 207 204 205 207 207 205 203 203 208 211 213 214 215 220 222 212 201 201 201 196 201 215 213 204 194 187 186 185 185 185 187 187 185 182 176 170 167
207 210 213 214 211 202 199 203 206 206 203 200 201 206 211 212 213 217 221 217 205 198 198 195 194 208 217 208 198 190 185 184 184 184 185 185 183 181 176 170 164 161
204 208 211 212 209 205 203 206 206 203 200 199 201 206 210 213 216 219 217 208 199 196 196 201 207 212 209 200 194 189 184 184 184 184 184 182 180 176 171 168 162 159
201 206 207 207 208 207 208 210 209 203 199 200 205 209 210 212 217 219 212 201 195 196 207 225 220 207 200 196 192 188 184 185 184 184 184 181 176 173 170 168 164 159
201 204 204 203 205 205 206 209 208 202 199 201 207 210 208 211 218 218 208 197 195 198 211 223 216 203 198 195 190 187 186 186 184 183 185 183 176 174 172 170 169 163
199 203 202 199 200 200 202 205 203 199 198 202 206 207 208 212 215 210 201 196 197 202 211 215 210 202 199 195 190 187 186 186 185 184 185 184 178 175 174 172 173 168
198 203 202 197 196 196 198 201 197 195 198 203 205 207 208 211 209 201 196 197 200 207 214 212 206 202 199 195 190 188 187 186 187 186 186 184 180 177 175 174 174 171
200 204 202 198 196 195 196 197 193 194 199 203 205 208 208 209 208 198 195 200 206 212 214 208 204 203 200 194 190 190 189 188 188 188 187 186 183 180 177 175 174 173
202 205 203 199 197 197 197 194 192 195 199 202 207 210 208 207 205 198 198 205 210 214 213 208 205 204 199 195 192 192 192 191 190 189 188 188 187 184 180 177 177 177
204 206 204 200 198 198 197 194 193 195 199 203 208 210 207 204 203 202 205 210 212 214 215 211 208 206 201 196 194 194 194 194 193 190 188 189 188 186 183 179 180 180
207 208 205 200 198 198 197 194 194 198 201 204 208 208 205 203 206 210 209 210 213 216 217 214 211 208 204 199 196 195 195 194 192 190 190 190 189 187 185 184 184 183
209 209 204 199 197 198 197 194 195 200 202 205 206 204 202 206 213 215 210 209 213 214 216 216 213 209 205 201 198 198 197 195 194 193 192 191 190 190 189 189 188 185
209 209 204 199 197 197 194 193 196 199 201 204 204 200 200 209 217 216 211 210 213 214 216 216 214 210 207 203 201 200 199 198 197 196 195 194 193 194 194 191 188 183
208 209 206 201 196 194 192 193 196 198 199 202 200 195 197 207 214 215 213 213 214 215 217 217 215 213 208 205 204 202 201 201 200 200 199 198 198 197 195 191 185 180
208 210 208 202 195 192 192 193 195 198 200 199 194 191 196 205 212 214 214 216 217 217 218 218 217 214 210 208 207 206 205 204 203 203 203 204 203 199 194 188 182 180
210 210 207 200 194 192 192 193 196 199 200 197 193 191 197 206 213 214 214 217 219 220 220 219 217 215 212 210 210 209 209 208 206 206 207 206 204 200 194 187 183 182
211 210 205 197 192 192 192 193 198 201 199 196 196 196 200 209 216 216 215 217 219 221 221 220 218 216 214 213 212 211 211 211 210 211 211 208 204 200 194 190 189 188
212 210 204 195 192 192 193 195 199 202 201 198 199 202 207 213 220 221 219 219 221 222 221 220 218 216 215 215 214 213 212 212 212 213 213 209 204 200 196 196 197 195
212 209 202 195 192 192 194 197 201 204 204 202 203 208 212 220 231 232 225 222 223 224 221 220 219 218 217 216 215 215 214 213 213 214 214 211 206 203 202 202 201 200
211 206 200 195 193 194 197 200 203 206 207 206 207 213 220 232 242 241 232 226 227 226 222 220 220 219 218 218 217 217 216 214 213 213 213 211 207 205 206 205 204 203
210 205 201 197 195 196 198 201 203 207 209 208 208 213 221 228 235 236 233 231 230 227 223 221 220 219 220 220 219 217 215 213 211 212 213 212 210 208 206 206 206 205
207 204 201 197 196 197 199 201 204 207 210 210 210 215 220 224 230 231 230 232 232 227 223 221 221 220 221 221 220 216 213 212 211 211 213 212 211 210 208 208 209 209
210 208 203 198 198 200 201 203 206 208 211 211 213 219 222 223 228 227 225 230 232 228 224 224 223 223 222 221 219 216 213 213 214 214 213 213 212 211 212 212 213 214
211 211 205 201 202 204 206 207 208 209 211 212 215 220 221 221 222 221 223 229 231 228 226 225 223 224 224 221 218 216 215 216 217 216 213 212 212 214 216 216 217 218
211 210 208 207 208 209 209 209 209 209 211 213 215 218 219 220 219 219 223 228 228 227 225 225 224 225 224 222 219 216 216 217 219 219 216 214 214 218 221 221 220 222